Wind_Speed
7 9 10 11 10 7 8 9 13 15 17 19 21 24 26 26 25 26 26 26 26 26 26 26 25 24 23 21 21 23 23 23 22 23 25 24 25 25 27 26 26 26 26
9 10 8 5 5 6 7 11 15 18 20 23 27 28 27 27 26 26 27 28 28 27 28 28 28 29 29 28 28 29 29 30 31 32 33 34 34 32 30 31 31 31 32
3 3 2 3 4 6 9 13 18 22 24 25 26 26 27 27 28 29 29 29 30 30 30 31 32 33 34 34 34 35 36 36 37 39 41 43 42 40 41 39 36 35 37
2 2 2 3 6 9 11 13 20 20 22 23 26 27 28 30 31 31 30 31 32 33 35 36 37 39 40 42 43 42 42 44 45 45 47 49 51 53 52 50 49 47 43
3 4 5 6 9 12 14 18 18 20 23 27 31 32 29 33 35 33 31 34 37 38 38 39 41 43 45 46 47 48 49 49 49 50 52 54 55 58 59 58 55 53 53
5 6 8 9 11 14 16 18 20 23 25 29 32 33 32 39 37 33 34 38 40 41 41 43 45 47 49 50 51 50 51 52 52 52 52 53 56 59 60 62 62 62 61
8 9 11 11 13 15 18 20 24 27 30 33 37 39 38 39 36 37 36 38 41 42 43 46 48 50 52 53 53 54 54 54 53 53 53 53 52 52 55 58 60 60 61
13 13 13 14 16 19 22 26 30 33 35 38 44 41 41 40 40 40 38 40 44 43 44 47 50 51 53 53 54 54 54 53 51 51 50 48 46 44 45 47 48 50 50
18 17 16 17 19 23 27 31 34 36 42 45 42 40 42 42 39 38 35 42 44 43 45 48 51 52 52 51 50 49 49 49 49 47 45 45 44 44 43 42 42 42 43
20 21 22 23 25 28 32 35 36 39 45 49 41 39 39 35 36 40 40 39 42 43 45 47 47 48 47 45 46 46 46 45 45 44 43 43 43 43 42 42 43 42 41
25 25 26 28 30 32 37 42 47 37 41 40 43 42 35 37 37 38 39 41 41 40 41 41 42 43 42 40 41 42 41 41 41 41 42 43 44 44 44 44 43 41 39
25 27 27 33 32 32 34 32 38 34 39 41 37 37 37 37 38 38 38 37 38 38 39 38 37 37 38 39 38 38 38 39 40 42 43 43 43 43 43 43 42 41 39
26 26 28 30 28 31 35 37 37 34 39 35 38 39 37 36 36 35 35 36 35 36 36 36 36 36 37 36 35 36 39 39 40 41 41 41 41 41 41 40 40 39 39
27 29 30 28 31 39 38 35 39 39 37 39 39 36 34 35 34 32 30 32 34 36 38 37 35 35 35 34 36 37 38 39 39 40 40 41 41 41 42 41 40 38 38
26 27 26 29 37 35 35 39 34 40 40 41 36 35 35 33 30 30 30 31 31 34 35 34 36 36 36 37 38 39 38 39 39 41 41 40 39 38 38 37 36 36 36
27 28 24 32 31 40 33 37 41 39 50 36 34 37 34 31 29 30 30 30 31 33 36 35 34 34 36 37 39 38 38 40 40 39 38 36 35 34 33 32 30 29 30
28 24 24 31 33 38 36 39 41 47 40 34 37 33 31 30 29 31 30 30 31 32 35 34 35 33 36 37 37 38 39 38 38 36 36 35 34 33 30 29 27 27 27
27 18 28 33 34 43 44 47 47 42 33 39 34 32 30 30 30 32 31 31 31 33 34 35 33 35 36 35 37 38 36 35 36 35 35 36 34 31 30 29 28 27 28
27 27 27 37 35 41 36 43 47 33 40 35 33 31 30 31 32 31 31 31 32 33 35 34 33 35 34 35 36 35 33 33 33 34 34 33 31 30 28 28 27 25 24
27 26 34 38 40 44 47 47 31 38 41 37 32 30 30 32 32 31 31 30 31 33 33 33 33 33 33 34 34 34 30 30 31 31 32 32 30 27 25 26 27 26 25
30 34 38 45 53 52 50 38 39 39 39 35 31 31 32 33 31 31 32 31 32 33 32 33 32 32 32 32 31 30 31 32 30 29 30 27 26 23 23 24 25 25 23
34 37 43 42 42 33 38 38 39 40 42 33 31 31 34 34 33 32 32 31 32 31 31 32 32 31 30 29 28 28 30 32 30 27 29 23 24 20 22 22 22 21 20
38 45 50 45 44 39 37 38 39 45 36 33 32 35 35 34 33 33 32 33 31 30 30 31 30 29 29 27 25 25 28 30 28 26 29 26 22 19 20 22 22 20 17
46 43 46 38 34 34 35 39 42 35 35 33 36 36 36 35 34 34 34 34 32 30 29 30 29 28 28 25 23 24 26 28 29 25 28 30 24 20 18 18 23 21 18
30 26 31 31 33 34 34 35 35 34 35 36 37 37 36 36 35 34 36 33 33 30 30 30 29 28 27 25 23 23 24 27 29 24 25 27 24 21 14 16 17 23 21
31 31 31 31 31 32 32 32 34 37 38 38 38 37 37 36 35 36 38 35 34 30 31 29 29 28 27 25 23 24 24 26 28 29 27 25 20 22 13 13 16 21 23
Wind_Direction
227 250 265 282 288 296 318 334 338 338 339 340 342 343 340 338 336 333 330 328 325 321 317 314 312 309 304 293 289 285 283 284 282 281 283 285 284 281 280 274 271 268 266
244 255 264 276 300 308 327 335 336 334 331 328 327 328 330 332 333 330 327 326 323 319 315 311 309 307 306 300 294 289 286 284 284 287 287 286 288 285 277 273 275 275 272
242 257 267 282 288 318 329 335 336 332 326 325 330 334 333 331 330 328 324 322 321 319 314 309 306 304 301 299 297 294 292 291 290 292 293 293 293 292 288 283 277 273 273
248 249 258 312 318 312 318 330 334 331 333 336 337 334 334 332 327 324 322 318 318 317 315 312 308 306 304 303 301 298 294 293 294 293 293 293 294 293 293 290 286 282 276
243 257 284 305 306 305 315 317 318 324 331 332 330 327 319 322 323 317 318 319 317 314 312 310 308 306 305 303 300 298 296 294 292 291 291 292 291 292 293 292 287 281 279
257 272 291 295 301 296 303 308 317 321 323 326 327 327 324 323 315 313 313 317 314 309 306 306 304 303 302 301 299 296 294 291 289 289 287 286 286 287 288 290 290 287 284
261 277 285 283 286 293 300 303 308 312 315 315 317 314 315 318 314 309 306 315 312 306 301 300 299 299 297 296 296 295 293 290 289 287 288 288 288 287 288 288 289 290 290
253 261 275 279 285 291 297 299 302 305 308 310 311 307 318 317 311 315 302 305 307 302 299 297 297 296 294 293 292 291 291 291 290 290 289 290 292 292 291 289 289 289 290
255 262 270 277 283 286 289 291 296 304 305 316 309 317 312 311 310 310 304 303 303 300 297 294 293 293 293 293 293 292 292 292 294 295 297 296 293 291 289 288 288 286 283
258 261 268 274 278 282 286 292 295 296 301 309 310 307 312 310 312 311 309 302 299 297 295 295 295 293 294 294 294 294 294 295 294 292 291 290 289 287 285 285 285 285 286
258 262 267 273 279 289 298 305 291 305 308 308 309 311 310 313 311 307 303 301 298 297 296 296 296 295 296 296 295 295 295 294 294 292 290 289 288 288 287 285 284 282 280
265 266 273 278 284 294 306 307 312 309 305 307 315 318 317 313 309 305 303 299 299 299 298 298 298 299 301 303 303 301 299 298 296 294 292 291 290 289 287 285 284 281 278
273 271 273 280 291 293 294 304 310 310 310 314 317 316 313 308 307 305 305 305 305 304 303 304 306 307 307 305 303 301 298 298 297 296 295 293 291 288 286 284 282 280 276
277 275 282 283 291 286 281 305 313 304 311 317 315 313 312 310 311 311 308 305 304 308 311 311 312 310 308 306 303 303 303 301 300 298 296 294 292 288 285 283 280 277 274
283 283 284 286 286 290 302 303 302 305 313 309 312 317 317 315 313 309 306 307 309 312 314 315 316 312 310 310 307 307 306 304 303 300 298 295 291 288 286 284 280 276 272
268 270 283 280 291 297 298 306 303 303 303 305 320 321 315 312 309 307 308 309 310 312 313 315 313 311 310 309 309 309 309 307 306 304 302 299 297 296 293 289 284 279 273
276 277 294 285 293 292 298 301 301 301 301 316 321 314 309 307 305 305 307 310 312 311 312 316 314 313 312 311 311 312 312 310 308 308 305 303 303 301 295 289 285 280 275
281 277 284 301 293 293 303 300 299 294 311 320 317 309 303 300 304 305 308 311 313 313 315 315 314 314 314 313 313 314 314 312 310 309 306 307 306 302 298 296 292 287 280
291 267 287 299 282 292 295 299 296 305 316 317 308 301 296 298 303 304 309 311 311 312 312 311 314 314 313 314 316 316 316 314 312 310 309 309 305 301 301 299 295 291 285
290 277 290 267 272 293 283 289 297 312 315 313 297 289 293 300 302 303 305 306 309 310 309 310 314 313 313 315 317 318 320 319 318 315 313 311 306 308 304 302 302 300 293
280 285 282 289 287 288 302 301 310 310 311 302 288 291 298 300 298 298 301 305 309 308 308 310 312 311 313 315 318 321 324 323 321 318 315 313 308 305 301 301 301 304 302
271 278 288 296 303 311 316 304 308 308 308 291 287 292 298 296 295 294 298 302 304 305 306 309 310 309 312 314 318 322 327 327 325 318 316 318 308 303 303 308 310 311 305
285 284 281 280 318 303 303 304 303 303 296 290 293 294 295 292 290 291 294 297 300 300 304 306 308 307 309 312 316 322 329 331 330 325 318 318 309 306 306 313 320 320 310
287 287 292 299 301 301 300 301 300 297 295 295 293 294 292 290 287 288 290 294 296 297 301 305 306 303 306 309 311 319 328 336 337 332 318 317 317 308 307 310 317 322 315
291 292 297 299 300 301 299 298 295 293 295 295 294 292 291 288 286 284 286 291 292 295 296 304 304 302 303 305 306 314 326 334 337 336 320 319 317 308 304 316 313 314 312
295 301 304 302 300 302 299 297 294 293 294 294 293 293 291 289 286 284 285 287 289 291 294 300 302 300 299 300 301 310 321 327 332 335 328 325 319 308 297 316 330 326 313
Height
3184 3185 3185 3185 3184 3184 3184 3183 3182 3181 3180 3179 3177 3176 3174 3171 3169 3166 3164 3162 3159 3158 3155 3153 3151 3151 3150 3148 3146 3144 3142 3141 3140 3138 3136 3136 3135 3134 3131 3129 3128 3128 3127
3183 3183 3183 3182 3182 3183 3182 3182 3180 3179 3177 3174 3172 3171 3170 3168 3166 3163 3161 3157 3155 3153 3150 3147 3146 3144 3143 3142 3141 3139 3137 3135 3133 3131 3130 3128 3127 3126 3126 3124 3123 3121 3120
3180 3181 3180 3180 3181 3180 3179 3179 3178 3176 3174 3171 3169 3167 3164 3163 3160 3159 3157 3154 3151 3148 3145 3142 3139 3137 3136 3135 3134 3132 3129 3127 3125 3123 3121 3118 3118 3117 3116 3115 3116 3115 3113
3178 3178 3178 3177 3178 3179 3178 3176 3174 3172 3171 3168 3164 3162 3159 3157 3155 3152 3151 3149 3145 3142 3138 3135 3133 3130 3127 3125 3123 3122 3121 3118 3116 3113 3111 3108 3106 3104 3103 3103 3102 3101 3102
3176 3176 3175 3173 3175 3177 3174 3173 3172 3169 3166 3164 3161 3158 3155 3152 3149 3147 3144 3141 3138 3135 3132 3129 3126 3122 3119 3116 3113 3110 3107 3106 3104 3103 3100 3096 3094 3091 3088 3088 3089 3090 3089
3173 3173 3173 3172 3172 3173 3170 3169 3168 3165 3163 3161 3158 3155 3152 3148 3145 3141 3139 3136 3132 3129 3126 3123 3119 3116 3112 3108 3105 3102 3099 3095 3092 3089 3087 3084 3082 3079 3077 3073 3071 3071 3071
3169 3169 3170 3169 3169 3168 3166 3165 3163 3161 3159 3157 3154 3151 3147 3143 3140 3137 3133 3129 3125 3122 3119 3116 3112 3108 3104 3100 3096 3092 3088 3084 3081 3078 3075 3072 3070 3067 3064 3062 3059 3056 3055
3165 3166 3165 3165 3164 3164 3162 3161 3158 3156 3154 3152 3149 3145 3139 3137 3134 3130 3126 3122 3118 3113 3109 3106 3101 3097 3093 3089 3085 3081 3077 3073 3069 3066 3062 3059 3056 3054 3051 3049 3048 3047 3043
3161 3161 3160 3160 3160 3158 3157 3155 3152 3151 3148 3145 3142 3140 3133 3128 3124 3121 3117 3114 3109 3104 3099 3095 3090 3086 3082 3078 3074 3069 3065 3061 3057 3053 3050 3047 3045 3043 3040 3037 3035 3034 3033
3156 3156 3156 3155 3154 3152 3150 3148 3146 3143 3141 3137 3132 3129 3126 3122 3117 3111 3108 3105 3100 3095 3090 3086 3082 3077 3074 3069 3065 3060 3055 3051 3047 3044 3040 3036 3033 3031 3029 3027 3025 3023 3022
3150 3150 3150 3149 3148 3146 3144 3142 3136 3134 3131 3129 3124 3120 3116 3112 3108 3104 3099 3094 3090 3085 3081 3076 3073 3067 3063 3058 3053 3049 3044 3040 3036 3033 3029 3025 3022 3019 3017 3015 3014 3013 3011
3144 3144 3144 3143 3141 3139 3136 3132 3129 3125 3123 3119 3115 3111 3107 3103 3099 3094 3089 3084 3079 3076 3071 3067 3062 3057 3053 3049 3044 3040 3035 3031 3027 3023 3019 3015 3012 3008 3005 3003 3002 3001 3000
3138 3138 3137 3136 3133 3130 3128 3125 3121 3117 3113 3110 3105 3102 3099 3094 3089 3083 3078 3074 3069 3065 3061 3057 3053 3048 3044 3039 3035 3030 3025 3021 3017 3012 3008 3004 3001 2997 2994 2992 2990 2989 2988
3131 3130 3129 3127 3124 3121 3118 3116 3113 3108 3105 3101 3097 3094 3089 3083 3077 3072 3069 3065 3061 3057 3052 3048 3044 3039 3034 3030 3026 3021 3016 3011 3006 3002 2998 2993 2989 2985 2982 2980 2979 2977 2976
3123 3122 3121 3119 3115 3111 3111 3107 3104 3100 3096 3092 3088 3082 3076 3071 3068 3064 3061 3058 3054 3049 3046 3040 3035 3029 3025 3020 3015 3011 3006 3001 2996 2991 2986 2982 2977 2973 2971 2968 2967 2965 2964
3115 3113 3112 3108 3105 3104 3102 3099 3095 3091 3087 3081 3077 3071 3066 3063 3060 3056 3053 3050 3046 3042 3037 3033 3028 3023 3017 3012 3007 3002 2997 2991 2986 2981 2975 2970 2967 2963 2960 2958 2956 2955 2953
3105 3103 3103 3101 3100 3097 3094 3089 3086 3082 3076 3072 3067 3063 3058 3055 3053 3050 3047 3042 3038 3034 3029 3026 3019 3015 3010 3004 2998 2993 2988 2982 2976 2971 2965 2961 2958 2954 2950 2947 2946 2944 2943
3097 3097 3096 3093 3092 3088 3084 3079 3076 3070 3067 3062 3057 3054 3051 3048 3047 3043 3039 3035 3030 3026 3021 3017 3013 3007 3001 2996 2990 2985 2979 2973 2967 2962 2957 2952 2948 2944 2940 2938 2936 2935 2933
3090 3087 3086 3085 3081 3078 3073 3069 3066 3062 3058 3053 3050 3046 3045 3042 3039 3035 3031 3027 3023 3018 3013 3009 3005 2999 2994 2989 2983 2978 2973 2966 2961 2954 2949 2945 2939 2936 2933 2930 2927 2926 2924
3082 3079 3077 3073 3068 3065 3062 3058 3057 3054 3050 3046 3043 3040 3038 3035 3031 3027 3023 3020 3015 3010 3006 3001 2996 2992 2987 2982 2976 2971 2967 2960 2954 2948 2942 2936 2932 2930 2926 2923 2920 2918 2916
3074 3071 3067 3065 3060 3055 3055 3053 3050 3046 3042 3038 3035 3033 3031 3027 3023 3020 3015 3011 3008 3003 2998 2993 2990 2985 2981 2976 2970 2965 2959 2953 2948 2942 2936 2931 2927 2924 2921 2918 2914 2911 2908
3063 3061 3056 3055 3052 3051 3048 3045 3041 3036 3033 3030 3028 3025 3022 3018 3014 3011 3007 3003 3001 2996 2991 2986 2983 2978 2974 2969 2965 2959 2953 2947 2942 2936 2931 2928 2922 2920 2916 2913 2909 2906 2902
3056 3050 3047 3044 3044 3043 3040 3036 3033 3027 3024 3022 3018 3015 3012 3009 3005 3002 2998 2995 2992 2988 2983 2979 2976 2972 2968 2963 2959 2954 2949 2942 2936 2931 2925 2921 2918 2916 2912 2908 2904 2900 2897
3046 3044 3042 3041 3037 3035 3031 3027 3023 3018 3015 3013 3009 3006 3002 2999 2996 2993 2989 2986 2983 2979 2975 2972 2968 2965 2961 2957 2953 2949 2944 2938 2932 2926 2920 2914 2913 2911 2908 2904 2900 2896 2893
3038 3035 3034 3031 3028 3025 3022 3018 3013 3009 3006 3003 3000 2996 2993 2989 2987 2983 2979 2977 2974 2971 2966 2964 2961 2958 2954 2950 2947 2943 2939 2933 2928 2923 2917 2912 2908 2905 2904 2901 2896 2891 2888
3029 3027 3024 3022 3019 3016 3012 3009 3004 2999 2996 2993 2990 2986 2983 2980 2976 2973 2969 2967 2965 2962 2958 2956 2953 2950 2947 2944 2941 2937 2933 2928 2923 2918 2913 2909 2904 2900 2899 2897 2893 2887 2882